TimeEDT,TemperatureF,Dew PointF,Humidity,Sea Level PressureIn,VisibilityMPH,Wind Direction,Wind SpeedMPH,Gust SpeedMPH,PrecipitationIn,Events,Conditions,WindDirDegrees,DateUTC
12:38 AM,53.6,46.4,77,29.92,10.0,NW,5.8,-,N/A,,Overcast,310,2013-03-17 04:38:00
12:52 AM,53.1,46.9,80,29.86,10.0,Variable,4.6,-,N/A,,Overcast,0,2013-03-17 04:52:00
1:52 AM,52.0,46.0,80,29.86,10.0,Calm,Calm,-,N/A,,Overcast,0,2013-03-17 05:52:00
2:11 AM,51.8,46.4,82,29.92,10.0,NW,3.5,-,N/A,,Overcast,310,2013-03-17 06:11:00
2:52 AM,50.0,44.1,80,29.86,9.0,WNW,6.9,-,N/A,,Overcast,300,2013-03-17 06:52:00
3:52 AM,48.9,43.0,80,29.87,8.0,WNW,4.6,-,N/A,,Overcast,290,2013-03-17 07:52:00
4:05 AM,48.2,42.8,82,29.92,8.0,NW,3.5,-,N/A,,Overcast,310,2013-03-17 08:05:00
4:52 AM,48.0,43.0,83,29.88,7.0,WNW,5.8,-,N/A,,Overcast,290,2013-03-17 08:52:00
5:52 AM,48.0,43.0,83,29.88,6.0,Calm,Calm,-,N/A,,Haze,0,2013-03-17 09:52:00
6:52 AM,46.9,43.0,86,29.93,6.0,West,4.6,-,N/A,,Overcast,280,2013-03-17 10:52:00
7:52 AM,46.9,43.0,86,29.95,2.0,West,4.6,-,0.05,Rain,Light Rain,270,2013-03-17 11:52:00
8:04 AM,46.4,42.8,87,30.00,3.0,NW,3.5,-,0.00,Rain,Light Rain,310,2013-03-17 12:04:00
8:12 AM,46.4,42.8,87,30.00,2.0,WNW,3.5,-,0.02,Rain,Rain,290,2013-03-17 12:12:00
8:20 AM,46.4,44.6,93,30.00,1.8,Calm,Calm,-,0.04,Rain,Rain,0,2013-03-17 12:20:00
8:42 AM,46.4,42.8,87,30.01,0.8,NNE,3.5,-,0.06,Rain,Light Rain,20,2013-03-17 12:42:00
8:52 AM,46.9,43.0,86,29.98,0.8,Calm,Calm,-,0.06,Rain,Light Rain,0,2013-03-17 12:52:00
8:57 AM,46.4,42.8,87,30.01,1.2,North,4.6,-,0.00,Rain,Light Rain,350,2013-03-17 12:57:00
9:18 AM,46.4,42.8,87,30.01,2.5,NNW,3.5,-,0.01,Rain,Light Rain,340,2013-03-17 13:18:00
9:35 AM,46.4,42.8,87,30.01,3.0,Calm,Calm,-,0.01,Rain,Light Rain,0,2013-03-17 13:35:00
9:52 AM,46.9,43.0,86,29.98,4.0,Calm,Calm,-,0.01,Rain,Light Rain,0,2013-03-17 13:52:00
10:05 AM,46.4,42.8,87,30.01,3.0,Variable,3.5,-,0.00,,Haze,0,2013-03-17 14:05:00
10:52 AM,46.0,41.0,83,30.00,3.0,North,4.6,-,0.00,,Haze,350,2013-03-17 14:52:00
11:22 AM,44.6,41.0,87,30.04,3.0,North,3.5,-,N/A,,Overcast,350,2013-03-17 15:22:00
11:25 AM,44.6,41.0,87,30.04,2.5,North,3.5,-,N/A,,Overcast,10,2013-03-17 15:25:00
11:45 AM,44.6,41.0,87,30.04,2.0,North,5.8,-,0.01,Rain,Light Rain,10,2013-03-17 15:45:00
12:16 PM,44.6,37.4,76,30.03,6.0,NE,5.8,-,N/A,,Haze,50,2013-03-17 16:16:00
12:52 PM,44.1,39.9,85,30.00,5.0,East,4.6,-,N/A,,Overcast,100,2013-03-17 16:52:00
1:06 PM,44.6,39.2,81,30.02,10.0,Variable,3.5,-,N/A,,Overcast,0,2013-03-17 17:06:00
1:52 PM,45.0,37.9,76,29.99,10.0,East,5.8,-,N/A,,Overcast,90,2013-03-17 17:52:00
2:13 PM,44.6,39.2,81,30.00,10.0,East,4.6,-,N/A,,Overcast,80,2013-03-17 18:13:00
2:43 PM,44.6,37.4,76,30.00,10.0,ENE,6.9,-,N/A,,Overcast,70,2013-03-17 18:43:00
2:52 PM,45.0,37.9,76,29.98,10.0,East,5.8,-,N/A,,Overcast,80,2013-03-17 18:52:00
3:52 PM,45.0,39.0,80,29.96,9.0,East,4.6,-,N/A,,Overcast,90,2013-03-17 19:52:00
4:52 PM,43.0,37.9,82,29.96,5.0,East,8.1,-,N/A,,Haze,90,2013-03-17 20:52:00
5:14 PM,42.8,39.2,87,29.98,4.0,East,5.8,-,N/A,,Overcast,100,2013-03-17 21:14:00
5:52 PM,44.1,39.9,85,29.97,6.0,East,4.6,-,N/A,,Overcast,90,2013-03-17 21:52:00
6:18 PM,44.6,39.2,81,29.99,10.0,East,6.9,-,N/A,,Overcast,90,2013-03-17 22:18:00
6:52 PM,43.0,37.9,82,29.98,7.0,Variable,6.9,17.3,N/A,,Overcast,0,2013-03-17 22:52:00
7:52 PM,42.1,37.9,85,30.00,7.0,ESE,8.1,-,0.01,Rain,Light Rain,110,2013-03-17 23:52:00
8:52 PM,41.0,37.0,86,30.02,5.0,East,8.1,-,0.06,Rain,Light Rain,90,2013-03-18 00:52:00
9:00 PM,41.0,37.4,87,30.02,10.0,East,9.2,-,0.00,Rain,Light Rain,90,2013-03-18 01:00:00
9:52 PM,39.0,34.0,82,30.02,10.0,SE,12.7,20.7,0.00,,Overcast,130,2013-03-18 01:52:00
10:52 PM,37.0,33.1,86,30.04,10.0,SE,18.4,26.5,0.02,Rain,Light Rain,130,2013-03-18 02:52:00
11:52 PM,37.0,33.1,86,30.04,10.0,ESE,13.8,21.9,0.03,Rain,Light Rain,110,2013-03-18 03:52:00